Flag for Canada Weather past 2 weeks in Sanikiluaq, Nunavut Territory, Canada

Now
34 °F

Overcast.


Feels Like: 30 °F
Forecast: 37 / 45 °F
Wind: 5 mph from Southeast

Location: Kuujjuarapik

Current Time: Oct 1, 2014 at 3:04:11 AM

Latest Report: Oct 1, 2014 at 2:00 AM


Visibility: 9 mi

Pressure: 30.15 "Hg

Humidity: 93%

Dew point: 32 °F

Location of SanikiluaqLocation

Historic Weather in Sanikiluaq — Graph

°F

Sanikiluaq temperature yesterday

Maximum temperature yesterday: 45 °F (at 7:00 AM)
Minimum temperature yesterday: 32 °F (at 11:00 PM)
Average temperature yesterday: 40 °F

Past Weeks' High & Low Weather Summary

 TemperatureHumidityPressure
High64 °F (Sep 24, 1:00 PM)100% (Sep 18, 4:48 AM)30.39 "Hg (Sep 18, 4:48 AM)
Low32 °F (Sep 18, 4:48 AM)52% (Sep 23, 3:00 AM)29.29 "Hg (Sep 20, 12:56 AM)
Average42 °F82%29.90 "Hg
* Reported Sep 16 2:03 AM — Oct 1 2:00 AM, Sanikiluaq, Weather by CustomWeather, © 2014

Note: Actual official high and low records may vary slightly from our data, if they occured in-between our weather recording intervals... More about our weather records

Advertising

Sanikiluaq weather history for previous 24 hours

 ConditionsComfort  
Time TempWeatherWind HumidityBarometerVisibility
2:00 AM
Oct 1
34 °FOvercast.5 mph93%30.15 "Hg9 mi
1:00 AM34 °FOvercast.5 mph93%30.15 "Hg9 mi
12:00 AM34 °FMostly cloudy.6 mph93%30.15 "Hg9 mi
11:00 PM
Sep 30
32 °FClear.6 mph93%30.16 "Hg9 mi
10:00 PM34 °FOvercast.3 mph93%30.16 "Hg9 mi
9:00 PM34 °FPassing clouds.5 mph87%30.15 "Hg9 mi
8:00 PM36 °FOvercast.5 mph87%30.14 "Hg9 mi
7:02 PM36 °FOvercast.5 mph93%30.14 "Hg9 mi
7:00 PM36 °FOvercast.3 mph87%30.13 "Hg9 mi
6:00 PM36 °FOvercast.10 mph93%30.12 "Hg9 mi
5:01 PM37 °FFog.9 mph87%30.09 "Hg5 mi
4:00 PM37 °FFog.13 mph100%30.08 "Hg5 mi
3:58 PM37 °FFog.8 mph100%30.08 "Hg5 mi
3:04 PM39 °FFog.10 mph93%30.07 "Hg2 mi
2:55 PM39 °FFog.9 mph100%30.06 "Hg3 mi
2:00 PM43 °FLight rain. Fog.9 mph93%30.04 "Hg2 mi
1:55 PM43 °FLight rain. Fog.10 mph93%30.04 "Hg2 mi
1:00 PM43 °FLight rain. Fog.13 mph100%30.01 "Hg6 mi
11:04 AM43 °FLight rain. Fog.14 mph100%29.98 "Hg2 mi
11:00 AM43 °FLight rain. Fog.15 mph100%29.98 "Hg2 mi
10:00 AM45 °FOvercast.18 mph87%29.98 "Hg9 mi
9:57 AM45 °FOvercast.18 mph81%29.98 "Hg9 mi
9:00 AM45 °FLight rain. Overcast.15 mph81%29.97 "Hg9 mi
8:57 AM45 °FLight rain. Overcast.14 mph81%29.97 "Hg9 mi
8:00 AM45 °FMostly cloudy.18 mph81%29.96 "Hg9 mi
7:00 AM45 °FMostly cloudy.18 mph76%29.96 "Hg9 mi
6:00 AM43 °FOvercast.14 mph76%29.96 "Hg9 mi
5:00 AM43 °FOvercast.14 mph76%29.97 "Hg9 mi
4:00 AM43 °FMostly cloudy.16 mph71%29.98 "Hg9 mi
3:00 AM41 °FOvercast.15 mph76%30.00 "Hg9 mi
Weather by CustomWeather, © 2014

See weather overviewHow to use our weather pages